Location: Marsån
(66.4167°N, 22.2833°E)
Time: 10:10:30
(UTC+00:00)

SL-24 R/B - Pass Details

Date: 24 February 2024
Orbit: 504 x 989 km, 97.5° (Epoch: 15 April)

Event Time Altitude Azimuth Distance (km) Brightness Sun altitude
Exits shadow 17:58:17 32° 101° (ESE) 961 4.5 -16.0°
Maximum altitude 17:59:29 42° 58° (ENE) 786 4.3 -16.1°
Drops below altitude 10° 18:03:01 10° 347° (NNW) 1,762 6.7 -16.5°
Sets 18:05:08 0° 341° (NNW) 2,633 7.8 -16.7°
